Location: Jetmore Oil Field
(38.1181°N, 99.9337°W)
Time: 21:48:38
(UTC+00:00)

STARLINK-63 - Pass Details

Date: 17 February 2020
Orbit: 528 x 531 km, 53.0° (Epoch: 29 March)

Event Time Altitude Azimuth Distance (km) Brightness Sun altitude
Rises 02:18:26 0° 240° (WSW) 2,656 8.0 -24.1°
Reaches altitude 10° 02:20:40 10° 245° (WSW) 1,773 7.0 -24.5°
Enters shadow 02:24:27 51° 314° (NW) 675 4.2 -25.3°
